This is the latest recevied weather packets stored in our database for station/object KD7CIH. If no packets are shown the sender has not sent any weather packets the latest 10 day(s).
| Time | Temp. | Humidity | Pressure | Rain* | Wind** | Luminosity | Snow |
|---|---|---|---|---|---|---|---|
| 1777829982 | 16.67° C | 21% | 1012.3 hPa | 0 mm | - | - | - |
| 1777829554 | 16.11° C | 21% | 1012.3 hPa | 0 mm | - | - | - |
| 1777829382 | 16.67° C | 19% | 1012.4 hPa | 0 mm | - | - | - |
| 1777828954 | 16.11° C | 20% | 1012.4 hPa | 0 mm | - | - | - |
| 1777828654 | 16.11° C | 21% | 1012.4 hPa | 0 mm | - | - | - |
| 1777828359 | 16.11° C | 20% | 1012.7 hPa | 0 mm | - | - | - |
| 1777827754 | 16.11° C | 22% | 1012.7 hPa | 0 mm | - | - | - |
| 1777827582 | 16.11° C | 22% | 1012.7 hPa | 0 mm | - | - | - |
| 1777827156 | 15.56° C | 23% | 1012.8 hPa | 0 mm | - | - | - |
| 1777826980 | 15.56° C | 22% | 1012.7 hPa | 0 mm | - | - | - |
| 1777826554 | 15.56° C | 23% | 1012.8 hPa | 0 mm | - | - | - |
| 1777826256 | 15.56° C | 25% | 1012.8 hPa | 0 mm | - | - | - |
| 1777825954 | 15° C | 24% | 1012.8 hPa | 0 mm | - | - | - |
| 1777825776 | 15.56° C | 25% | 1012.8 hPa | 0 mm | - | - | - |
| 1777825481 | 15° C | 26% | 1012.9 hPa | 0 mm | - | - | - |
| 1777825055 | 15° C | 26% | 1012.9 hPa | 0 mm | - | - | - |
| 1777824753 | 14.44° C | 29% | 1012.8 hPa | 0 mm | - | - | - |
| 1777824456 | 14.44° C | 27% | 1012.9 hPa | 0 mm | - | - | - |
| 1777824154 | 13.89° C | 30% | 1013 hPa | 0 mm | - | - | - |
| 1777823854 | 13.89° C | 30% | 1013.1 hPa | 0 mm | - | - | - |
| 1777823554 | 13.33° C | 32% | 1013.3 hPa | 0 mm | - | - | - |
| 1777823255 | 13.33° C | 32% | 1013.3 hPa | 0 mm | - | - | - |
| 1777822953 | 12.78° C | 33% | 1013.4 hPa | 0 mm | - | - | - |
| 1777822653 | 12.22° C | 35% | 1013.4 hPa | 0 mm | - | - | - |
| 1777822354 | 12.22° C | 35% | 1013.5 hPa | 0 mm | - | - | - |
* Rain latest hour (hover to see other rain measurements)
** Current wind speed in m/s (hover to see current wind gust speed)